AirNav   Everest Fuels
 
 1159 users online  

M34 Kentucky Dam State Park Airport
Calvert City, Kentucky, USA

GOING TO CALVERT CITY?


FAA INFORMATION EFFECTIVE 26 JANUARY 2023

Location

FAA Identifier: M34
Lat/Long: 37-00-35.3300N 088-17-57.8500W
37-00.588833N 088-17.964167W
37.0098139,-88.2994028
(estimated)
Elevation: 350.8 ft. / 106.9 m (surveyed)
Variation: 03W (2020)
From city: 3 miles SE of CALVERT CITY, KY
Time zone: UTC -6 (UTC -5 during Daylight Saving Time)
Zip code: 42044

Airport Operations

Airport use: Open to the public
Activation date: 10/1948
Control tower: no
ARTCC: MEMPHIS CENTER
FSS: LOUISVILLE FLIGHT SERVICE STATION
NOTAMs facility: LOU (NOTAM-D service available)
Attendance: UNATNDD
Wind indicator: lighted
Segmented circle: yes
Lights: ACTVT REIL RWY 10 & 28; PAPI RWY 10 & 28; MIRL RWY 10/28 - CTAF.
Beacon: white-green (lighted land airport)
Operates sunset to sunrise.

Airport Communications

CTAF/UNICOM: 123.0
WX AWOS-3 at M25 (20 nm SW): 120.625 (270-247-2094)

Nearby radio navigation aids

VOR radial/distance  VOR name  Freq  Var
CNGr087/25.8CUNNINGHAM VOR/DME113.1003E

Airport Services

Fuel available: 100LL JET-A
Parking: tiedowns
Airframe service: NONE
Powerplant service: NONE
Bottled oxygen: NONE
Bulk oxygen: NONE

Runway Information

Runway 10/28

Dimensions: 3996 x 100 ft. / 1218 x 30 m
Surface: asphalt, in good condition
Weight bearing capacity: 
Single wheel: 12.5
Runway edge lights: medium intensity
RUNWAY 10  RUNWAY 28
Latitude: 37-00.637100N37-00.540533N
Longitude: 088-18.370300W088-17.558040W
Elevation: 348.6 ft.350.7 ft.
Traffic pattern: leftleft
Runway heading: 101 magnetic, 098 true281 magnetic, 278 true
Markings: nonprecision, in good conditionnonprecision, in good condition
Visual slope indicator: 2-light PAPI on left (4.00 degrees glide path)2-light PAPI on left (4.00 degrees glide path)
Runway end identifier lights: yesyes
Touchdown point: yes, no lightsyes, no lights
Obstructions: none21 ft. trees, 282 ft. from runway, 129 ft. right of centerline, 3:1 slope to clear

Airport Ownership and Management from official FAA records

Ownership: Publicly-owned
Owner: CALVERT CITY KENTUCKY
2 HUDSON HOLLOW UNIT 1
FRANKFORT, KY 40601
Phone (502) 892-3367
Manager: JOHN WARD
P.O. BOX 36
CALVERT CITY, KY 42029
Phone (270) 395-7138

Airport Operational Statistics

Aircraft based on the field: 16
Single engine airplanes: 16
    
Aircraft operations: avg 44/day *
69% transient general aviation
19% military
9% local general aviation
3% air taxi
* for 12-month period ending 18 October 2019

Additional Remarks

DEER & GEESE ON & INVOF ARPT.
FOR CD CTC MEMPHIS ARTCC AT 901-368-8453/8449.

Instrument Procedures

There are no published instrument procedures at M34.

Some nearby airports with instrument procedures:

M25 - Mayfield Graves County Airport (20 nm SW)
KCEY - Kyle-Oakley Field Airport (21 nm S)
KGDA - Marion-Crittenden County James C Johnson Regional Airport (22 nm NE)
2M0 - Princeton-Caldwell County Airport (22 nm E)
KPAH - Barkley Regional Airport (23 nm W)
 
Loc | Ops | Rwys | IFR | FBO | Links
Com | Nav | Svcs | Stats | Notes
Area around M34 (Kentucky Dam State Park Airport)
 
Road maps at: MapQuest Bing Google
 
Aerial photo
WARNING: Photo may not be current or correct
Aerial photo of M34 (Kentucky Dam State Park Airport)
Photo by Brandon Tanner
Photo taken 02-Apr-2015
looking east.

Do you have a better or more recent aerial photo of Kentucky Dam State Park Airport that you would like to share? If so, please send us your photo.

 
Sectional chart

 
Airport diagram
CAUTION: Diagram may not be current
Diagram of M34 (Kentucky Dam State Park Airport)
 
Airport distance calculator
Flying to Kentucky Dam State Park Airport? Find the distance to fly.

From to M34

Sunrise and sunset
Times for 04-Feb-2023
 Local
(UTC-6)
 Zulu
(UTC)
Morning civil twilight06:2712:27
Sunrise06:5412:54
Sunset17:2023:20
Evening civil twilight17:4723:47

Current date and time
Zulu (UTC)  04-Feb-2023 20:29:26
Local (UTC-6)  04-Feb-2023 14:29:26
 
METAR
KCEY 
21nm S 
042015Z AUTO 20008G15KT 10SM CLR 08/M06 A3034 RMK A01
KGDA 
22nm NE 
042015Z AUTO 22010G19KT 10SM CLR 07/M06 A3029 RMK AO2 T00651065
KPAH 
23nm W 
041953Z 22007G17KT 10SM CLR 07/M06 A3031 RMK AO2 SLP268 T00721056
KM30 
24nm NW 
042015Z AUTO 22008G14KT 10SM CLR 07/M07 A3033 RMK AO2 T00671073
KTWT 
36nm NE 
042015Z AUTO 22010G14KT 10SM CLR 07/M05 A3029 RMK AO2
TAF
KPAH 
23nm W 
041725Z 0418/0518 22012G21KT P6SM BKN250 TEMPO 0418/0422 22012KT FM050200 19013KT P6SM BKN250 FM050400 20013G18KT P6SM BKN250 WS020/21040KT FM051400 23012G20KT P6SM BKN080
NOTAMs
Click for the latest NOTAMs
NOTAMs are issued by the DoD/FAA and will open in a separate window not controlled by AirNav.

 

 
 

FBO, Fuel Providers, and Aircraft Ground Support

  
 Business Name 
 
 Contact 
 
 Services / Description 
 
Fuel Prices
 
Comments
  
Kentucky Dam State Park Airport 270-395-7138
[web site]
[email]

Like us on facebook See us on instagram
Airport management, Aviation fuel, Aircraft parking (ramp or tiedown), Hangar leasing / sales, Passenger terminal and lounge, Catering, ...
More info and photos of Kentucky Dam State Park Airport
100LL Jet A
SS $6.00 $5.80 
 Updated 02-Nov-2022
 
   1 read write
SS=Self service
Update Fuel Prices
 

Would you like to see your business listed on this page?

 If your business provides an interesting product or service to pilots, flight crews, aircraft, or users of the Kentucky Dam State Park Airport, you should consider listing it here.  To start the listing process, click on the button below
 
Add a business
 

Other Pages about Kentucky Dam State Park Airport

Update a link
 
Copyright © AirNav, LLC. All rights reserved. Privacy Policy  Contact